{"data":{"norad_id":32275,"intl_designator":"2007-052A","name":"COSMOS 2433 (720)","alt_names":[],"object_type":"PAYLOAD","status":"ACTIVE","operator":null,"country":"CIS","launch_date":"2007-10-26","launch_site_code":"TYMSC","launch_vehicle":null,"mission":null,"orbit_class":"UNKNOWN","rcs_meters":5.0913,"size_class":null,"mass_kg":null,"dimensions":null,"purposes":["nav"],"wikipedia_slug":null,"has_3d_model":false,"image_url":null,"decayed_at":null,"tle_current":{"epoch":"2026-09-19T05:40:28.574112Z","epoch_age_seconds":123548,"freshness":"FRESH","line1":"1 32275U 07052A   26262.23644183 -.00000035  00000+0  00000+0 0  9999","line2":"2 32275  65.5186 312.7646 0005551 227.5955 132.4288  2.13104383147063","mean_motion":2.13104383,"eccentricity":0.0005551,"inclination_deg":65.5186,"raan_deg":312.7646,"arg_perigee_deg":227.5955,"mean_anomaly_deg":132.4288,"bstar":0,"rev_number":14706,"period_min":675.72519144292,"perigee_km":19115.537869226,"apogee_km":19143.85666683,"semimajor_km":25507.834268028,"source":"CELESTRAK","updated_at":"2026-09-20T09:00:46.273141Z"}}}